Погода в Ла-Серене

Чили     29°54′23″S   71°14′46″W
В апреле 2022 года жителям России запретили посещать сайт meteo.paraplan.net по решению Генеральной прокуратуры. Аудитория сайта уменьшилась в 10 раз. Владельцы сайта не видят смысла в поддержке погодного сервера в таких условиях. Сайт будет закрыт в октябре.
темп.,
°C
ветер,
м/с
пор.,
м/с
влажн.,
%
обл.,
%
осадки,
мм/ч
давл.,
гПа
погр.,
м
29 сентября, чт
чт2900:00+11зсз118894 0.0 101876
03:00+10с229442 0.0 1018112
06:00+10с119228 0.0 101793
09:00+12с118743 0.0 1019265
12:00+15зсз32697 0.0 1019491
15:00+17з42637 0.0 1017472
18:00+14з327516 0.0 1017327
21:00+11ссв228719 0.0 1018222
30 сентября, пт
пт3000:00+12з11840 0.0 101714
03:00+11зюз11910 0.0 101615
06:00+11з22880 0.0 101413
09:00+12с1181100 0.0 1016126
12:00+17зсз32615 0.0 1016378
15:00+17зсз426186 0.0 1015390
18:00+15сз327677 0.0 1015349
21:00+13ссз11849 0.0 1015120
1 октября, сб
сб100:00+12с11895 0.0 101653
03:00+11с11930 0.0 101511
06:00+11сз11920 0.0 101411
09:00+13сз21831 0.0 1017186
12:00+16зсз32650 0.0 1018463
15:00+16зсз43655 0.0 1017454
18:00+17сз21646 0.0 1016300
21:00+13зюз11837 0.0 101766
2 октября, вс
вс200:00+13зсз11828 0.0 101629
03:00+12с11870 0.0 101612
06:00+11с11880 0.0 101511
09:00+14сз22750 0.0 1017146
12:00+18зсз32603 0.0 1016359
15:00+18зсз325710 0.0 1016388
18:00+17зсз2165100 0.0 1014253
21:00+13ссв22828 0.0 1015110
3 октября, пн
пн300:00+13зсз22780 0.0 101538
03:00+12ссз11810 0.0 101511
06:00+10з11911 0.0 101513
09:00+14зсз11715 0.0 1016149
12:00+18сз21597 0.0 1016365
15:00+18зсз4254100 0.0 1016396
18:00+16зсз326451 0.0 1015305
21:00+12с1182100 0.0 1017105